TimeEST,TemperatureF,Dew PointF,Humidity,Sea Level PressureIn,VisibilityMPH,Wind Direction,Wind SpeedMPH,Gust SpeedMPH,PrecipitationIn,Events,Conditions,WindDirDegrees,DateUTC
12:53 AM,64.9,64.0,97,29.97,10.0,NW,5.8,-,N/A,,Mostly Cloudy,310,2013-02-16 05:53:00
1:10 AM,64.4,64.4,100,29.96,10.0,WNW,3.5,-,N/A,,Overcast,300,2013-02-16 06:10:00
1:29 AM,64.4,64.4,100,29.96,10.0,NW,5.8,-,N/A,,Overcast,320,2013-02-16 06:29:00
1:53 AM,64.9,64.0,97,29.96,10.0,NW,8.1,-,N/A,,Overcast,320,2013-02-16 06:53:00
2:17 AM,64.4,62.6,94,29.95,10.0,NW,8.1,-,N/A,,Overcast,320,2013-02-16 07:17:00
2:41 AM,64.4,62.6,94,29.93,10.0,NNW,5.8,-,N/A,,Overcast,330,2013-02-16 07:41:00
2:53 AM,64.0,63.0,96,29.93,10.0,NNW,6.9,-,N/A,,Overcast,330,2013-02-16 07:53:00
3:17 AM,64.4,62.6,94,29.93,10.0,NW,6.9,-,0.00,Rain,Light Rain,310,2013-02-16 08:17:00
3:53 AM,64.0,62.1,93,29.92,10.0,NW,5.8,-,0.00,Rain,Light Rain,310,2013-02-16 08:53:00
4:53 AM,64.0,62.1,93,29.92,10.0,NW,4.6,-,0.01,,Overcast,310,2013-02-16 09:53:00
5:53 AM,64.0,62.1,93,29.92,10.0,NW,4.6,-,0.00,Rain,Light Rain,310,2013-02-16 10:53:00
6:53 AM,64.0,62.1,93,29.94,10.0,NW,6.9,-,0.01,,Overcast,310,2013-02-16 11:53:00
7:40 AM,64.4,62.6,94,29.94,10.0,NW,5.8,-,N/A,,Overcast,310,2013-02-16 12:40:00
7:53 AM,64.0,63.0,96,29.94,10.0,NW,6.9,-,N/A,,Mostly Cloudy,310,2013-02-16 12:53:00
8:14 AM,64.4,62.6,94,29.95,10.0,NW,5.8,-,N/A,,Mostly Cloudy,320,2013-02-16 13:14:00
8:43 AM,64.4,62.6,94,29.95,10.0,NW,6.9,-,N/A,,Mostly Cloudy,310,2013-02-16 13:43:00
8:53 AM,64.9,63.0,93,29.96,10.0,NW,9.2,-,N/A,,Mostly Cloudy,310,2013-02-16 13:53:00
9:06 AM,64.4,62.6,94,29.95,10.0,NW,8.1,-,N/A,,Mostly Cloudy,320,2013-02-16 14:06:00
9:36 AM,66.2,62.6,88,29.96,10.0,WNW,8.1,-,N/A,,Mostly Cloudy,300,2013-02-16 14:36:00
9:53 AM,66.9,63.0,87,29.97,10.0,NW,5.8,-,N/A,,Mostly Cloudy,310,2013-02-16 14:53:00
10:21 AM,68.0,60.8,78,29.97,10.0,NW,8.1,-,N/A,,Mostly Cloudy,320,2013-02-16 15:21:00
10:32 AM,68.0,60.8,78,29.97,10.0,NW,10.4,-,N/A,,Mostly Cloudy,320,2013-02-16 15:32:00
10:53 AM,69.1,61.0,75,29.97,10.0,NW,10.4,-,N/A,,Mostly Cloudy,320,2013-02-16 15:53:00
11:53 AM,73.0,60.1,64,29.96,10.0,WNW,15.0,20.7,N/A,,Partly Cloudy,290,2013-02-16 16:53:00
12:53 PM,73.9,57.0,55,29.94,10.0,West,15.0,-,N/A,,Clear,270,2013-02-16 17:53:00
1:53 PM,75.0,51.1,43,29.92,10.0,West,17.3,23.0,N/A,,Partly Cloudy,270,2013-02-16 18:53:00
2:53 PM,73.9,46.0,37,29.92,10.0,West,17.3,28.8,N/A,,Clear,280,2013-02-16 19:53:00
3:53 PM,73.0,44.1,35,29.93,10.0,WNW,16.1,23.0,N/A,,Clear,290,2013-02-16 20:53:00
4:53 PM,70.0,46.0,42,29.95,10.0,WNW,21.9,31.1,N/A,,Clear,300,2013-02-16 21:53:00
5:53 PM,66.9,45.0,45,29.98,10.0,WNW,18.4,-,N/A,,Clear,300,2013-02-16 22:53:00
6:53 PM,64.9,48.0,54,29.99,10.0,WNW,11.5,-,N/A,,Clear,290,2013-02-16 23:53:00
7:53 PM,63.0,48.9,60,30.02,10.0,WNW,15.0,23.0,N/A,,Clear,300,2013-02-17 00:53:00
8:53 PM,60.1,48.0,64,30.06,10.0,NW,18.4,28.8,N/A,,Clear,310,2013-02-17 01:53:00
9:53 PM,57.9,46.0,65,30.09,10.0,NW,12.7,24.2,N/A,,Clear,320,2013-02-17 02:53:00
10:53 PM,55.9,45.0,67,30.11,10.0,NW,17.3,25.3,N/A,,Clear,320,2013-02-17 03:53:00
11:53 PM,55.0,44.1,67,30.12,10.0,NW,15.0,-,N/A,,Clear,320,2013-02-17 04:53:00